Location: Haliburton Scout Reserve
(45.0900°N, 78.3200°W)
Time: 09:10:12
(UTC-04:00)

Cosmos 1315 - Visible Passes

Search period start: 21 April 2015 00:00
Search period end: 01 May 2015 00:00
Orbit: 349 x 353 km, 81.1° (Epoch: 21 April)

Date Brightness Start Highest point End Pass type
(mag) Time Alt. Az. Time Alt. Az. Time Alt. Az.
21 Apr 6.3 21:15:43 10° W 21:16:48 11° WNW 21:17:46 10° NW visible
26 Apr 6.2 05:23:35 10° NE 05:24:55 13° ENE 05:26:20 10° E visible
29 Apr 5.8 05:05:08 10° NNE 05:07:02 16° ENE 05:08:59 10° ESE visible
30 Apr 3.6 05:28:48 10° N 05:31:35 48° ENE 05:34:21 10° SSE visible
